CW7536 Weather Reports


Display with metric or nautical units.
time (UTC)temp
F
wind
direction
speed
MPH
gust
MPH
rain 1hr
in
rain 24hr
in
rain mn
in
humidity
%
barometer
mb
20260905014507 71 34 0.0 0.0 0.00 0.00 0.00 1 1011.3
20260905013002 72 34 0.0 0.0 0.00 0.00 0.00 1 1011.1
20260905011606 72 41 0.0 0.0 0.00 0.00 0.00 1 1011.0
20260905010106 73 44 0.0 0.0 0.00 0.00 0.00 1 1011.2
20260905004551 73 44 0.0 0.0 0.00 0.00 0.00 1 1010.9
20260905003048 73 44 0.0 0.0 0.00 0.00 0.00 1 1011.0
20260905001543 74 44 0.0 1.0 0.00 0.00 0.00 1 1010.9
20260905000040 75 44 0.0 0.0 0.00 0.00 0.00 1 1010.7
20260904234542 76 44 0.0 0.0 0.00 0.00 0.00 1 1010.6
20260904233030 77 44 0.0 0.0 0.00 0.00 0.00 11 1010.5
20260904231528 78 44 0.0 0.0 0.00 0.00 0.00 21 1010.5
20260904230021 80 44 0.0 0.0 0.00 0.00 0.00 29 1010.5
20260904224516 83 44 0.0 0.0 0.00 0.00 0.00 33 1010.6
20260904223012 86 348 0.0 0.0 0.00 0.00 0.00 33 1010.7
20260904221508 86 347 0.0 1.0 0.00 0.00 0.00 32 1010.7
20260904220003 85 32 0.0 1.0 0.00 0.00 0.00 33 1010.5
20260904214559 85 6 0.0 1.0 0.00 0.00 0.00 33 1010.5
20260904213059 86 52 0.0 1.0 0.00 0.00 0.00 32 1010.3
20260904211557 84 18 0.0 1.0 0.00 0.00 0.00 32 1010.2
20260904210048 84 6 0.0 6.0 0.00 0.00 0.00 32 1010.2
20260904204541 84 328 0.0 3.0 0.00 0.00 0.00 31 1010.5
20260904203044 84 38 0.0 3.0 0.00 0.00 0.00 32 1010.7
20260904201533 85 286 0.0 2.0 0.00 0.00 0.00 31 1010.8
20260904200028 85 2 0.0 4.0 0.00 0.00 0.00 30 1010.9
20260904194524 85 360 0.0 5.0 0.00 0.00 0.00 30 1011.0
20260904193023 84 316 0.0 4.0 0.00 0.00 0.00 29 1011.0
20260904191519 84 44 0.0 3.0 0.00 0.00 0.00 29 1011.2
20260904190015 85 35 0.0 1.0 0.00 0.00 0.00 27 1011.3
20260904184507 85 318 0.0 2.0 0.00 0.00 0.00 27 1011.4
20260904183003 85 54 2.0 6.0 0.00 0.00 0.00 27 1011.7
20260904181558 84 3 0.0 5.0 0.00 0.00 0.00 26 1011.6
20260904180056 85 317 0.0 6.0 0.00 0.00 0.00 25 1011.5
20260904174551 85 351 0.0 6.0 0.00 0.00 0.00 23 1011.5
20260904173045 84 51 1.0 8.0 0.00 0.00 0.00 23 1011.3
20260904171550 84 359 0.0 5.0 0.00 0.00 0.00 21 1011.5
20260904170037 85 110 2.0 7.0 0.00 0.00 0.00 19 1011.5
20260904164532 84 318 0.0 3.0 0.00 0.00 0.00 17 1011.8
20260904163029 83 295 0.0 3.0 0.00 0.00 0.00 15 1011.6
20260904161525 83 340 0.0 6.0 0.00 0.00 0.00 14 1011.7
20260904160025 84 20 2.0 8.0 0.00 0.00 0.00 10 1011.7
20260904154514 83 347 1.0 5.0 0.00 0.00 0.00 9 1011.8
20260904153010 83 95 1.0 5.0 0.00 0.00 0.00 2 1011.9
20260904151505 83 10 0.0 5.0 0.00 0.00 0.00 1 1012.1
20260904150106 82 31 0.0 2.0 0.00 0.00 0.00 1 1012.2
20260904144601 82 77 0.0 3.0 0.00 0.00 0.00 1 1012.1
20260904143052 81 343 1.0 6.0 0.00 0.00 0.00 1 1012.0
20260904141548 80 27 0.0 3.0 0.00 0.00 0.00 1 1012.0
20260904140059 79 30 1.0 6.0 0.00 0.00 0.00 1 1011.9
20260904134639 78 352 0.0 2.0 0.00 0.00 0.00 1 1011.9
20260904133035 76 20 0.0 2.0 0.00 0.00 0.00 1 1011.8
20260904131531 75 23 0.0 2.0 0.00 0.00 0.00 1 1011.8
20260904130042 75 68 0.0 1.0 0.00 0.00 0.00 1 1011.9
20260904124522 75 108 0.0 0.0 0.00 0.00 0.00 1 1012.0
20260904123017 73 196 0.0 0.0 0.00 0.00 0.00 1 1012.0
20260904121513 73 197 0.0 0.0 0.00 0.00 0.00 1 1011.7
20260904120013 72 196 0.0 0.0 0.00 0.00 0.00 1 1011.5
20260904114503 72 196 0.0 0.0 0.00 0.00 0.00 1 1011.3
20260904113100 72 196 0.0 1.0 0.00 0.00 0.00 1 1011.5
20260904111555 71 191 0.0 2.0 0.00 0.00 0.00 1 1011.4
20260904110053 71 276 0.0 0.0 0.00 0.00 0.00 1 1011.2
20260904104546 71 254 0.0 2.0 0.00 0.00 0.00 1 1011.0
20260904103046 71 275 0.0 3.0 0.00 0.00 0.00 1 1011.0
20260904101537 71 283 0.0 0.0 0.00 0.00 0.00 1 1011.0
20260904100033 71 283 0.0 1.0 0.00 0.00 0.00 1 1010.7
20260904094528 71 281 0.0 0.0 0.00 0.00 0.00 1 1010.5
20260904093025 72 281 0.0 1.0 0.00 0.00 0.00 1 1010.6
20260904091520 72 283 0.0 0.0 0.00 0.00 0.00 1 1010.6
20260904090016 72 283 0.0 0.0 0.00 0.00 0.00 1 1010.7
20260904084513 72 283 0.0 0.0 0.00 0.00 0.00 1 1010.6
20260904083012 72 283 0.0 0.0 0.00 0.00 0.00 1 1010.7
20260904081509 72 252 0.0 1.0 0.00 0.00 0.00 1 1010.6
20260904080004 72 285 0.0 1.0 0.00 0.00 0.00 1 1010.7
20260904074612 72 281 0.0 3.0 0.00 0.00 0.00 1 1010.5
20260904073059 72 255 0.0 0.0 0.00 0.00 0.00 1 1010.5
20260904071551 72 239 0.0 1.0 0.00 0.00 0.00 1 1010.2
20260904070047 72 282 0.0 2.0 0.00 0.00 0.00 1 1010.3
20260904064542 73 240 1.0 3.0 0.00 0.00 0.00 1 1010.1
20260904063042 73 29 0.0 1.0 0.00 0.00 0.00 1 1010.1
20260904061532 74 29 1.0 2.0 0.00 0.00 0.00 1 1010.5
20260904060029 75 335 1.0 11.0 0.00 0.00 0.00 1 1011.9
20260904054523 76 278 0.0 1.0 0.00 0.00 0.00 1 1011.4
20260904053025 76 278 0.0 1.0 0.00 0.00 0.00 1 1011.4
20260904051529 76 278 0.0 0.0 0.00 0.00 0.00 1 1011.5
20260904050010 76 278 0.0 0.0 0.00 0.00 0.00 1 1011.2
20260904044506 76 278 0.0 0.0 0.00 0.00 0.00 1 1011.1
20260904043002 76 278 0.0 0.0 0.00 0.00 0.00 1 1011.5
20260904041557 77 278 0.0 0.0 0.00 0.00 0.00 1 1011.6
20260904040053 77 278 0.0 1.0 0.00 0.00 0.00 1 1011.8
20260904034549 77 278 0.0 1.0 0.00 0.00 0.00 1 1012.0
20260904033045 77 258 0.0 0.0 0.00 0.00 0.00 1 1011.9
20260904031540 77 262 0.0 0.0 0.00 0.00 0.00 1 1011.7
20260904030035 78 261 0.0 1.0 0.00 0.00 0.00 1 1011.4
20260904024531 78 261 0.0 1.0 0.00 0.00 0.00 1 1011.9
20260904023026 78 283 0.0 1.0 0.00 0.00 0.00 1 1012.3
20260904021526 78 285 0.0 1.0 0.00 0.00 0.00 1 1012.3
20260904020018 78 285 0.0 0.0 0.00 0.00 0.00 1 1012.5